User: anonymous   Login
Location: Newark
(46.2358°N, 112.1211°W)
Time: 23:39:34
(UTC+00:00)
Language:

QB50P2 - Orbit

View from above orbital plane
View from above orbital plane
View from above satellite
View from above satellite

Ground track
Ground track

The orbit data is extracted from the following two-line orbital elements,

1 40032U 14033Y   20188.52606047 +.00000172 +00000-0 +24471-4 0  9991
2 40032 097.9036 110.2622 0010560 229.4950 130.5347 14.88676198327825
Epoch (UTC): 06 July 2020 12:37:31
Eccentricity: 0.0010560
inclination: 97.9036°
perigee height: 595 km
apogee height: 609 km
right ascension of ascending node: 110.2622°
argument of perigee: 229.4950°
revolutions per day: 14.88676198
mean anomaly at epoch: 130.5347°
orbit number at epoch: 32782

The dashed part of the orbit path shows where the satellite is in the earth's shadow,  

DLR